Regional Weather Roundup
Issued by NWS

Home | Current Version | Previous Version | Text Only | Print | Product List | Glossary On
Versions: 1 2 3 4 5 6 7 8 9 10 11 12 13 14 15 16 17 18 19 20 21 22 23 24 25 26 27 28 29 30 31 32 33 34 35 36 37 38 39 40 41 42 43 44 45 46 47 48 49 50
000
ASUS46 KSEW 032010
RWRWA

WASHINGTON REGIONAL WEATHER ROUNDUP
NATIONAL WEATHER SERVICE SEATTLE WA
100 PM PDT FRI JUL 03 2015

NOTE:"FAIR" INDICATES FEW OR NO CLOUDS BELOW 12,000 FEET WITH NO
SIGNIFICANT WEATHER AND/OR OBSTRUCTIONS TO VISIBILITY.

WAZ505-507>509-032100-
SEATTLE, TACOMA, EVERETT, AND VICINITY

CITY           SKY/WX    TMP DP  RH WIND       PRES   REMARKS
EVERETT        SUNNY     81  53  37 NW10      29.96F
BOEING FIELD   SUNNY     87  54  32 NW9       29.93F
RENTON         SUNNY     86  57  37 NW9       29.92F
SEATAC AIRPORT SUNNY     86  56  35 NW10      29.95F
JBLM-MCCHORD   SUNNY     87  53  31 N10G18    29.93F
PUYALLUP       FAIR      88  55  33 VRB5      29.95F
BREMERTON      SUNNY     86  55  35 E6        29.97S
JBLM-FT LEWIS  SUNNY     86  55  34 NW9       29.93F
TACOMA NARROWS SUNNY     84  53  34 VRB5      29.94F
$$

WAZ001-503-506-510-514-515-032100-
NORTH INTERIOR

CITY           SKY/WX    TMP DP  RH WIND       PRES   REMARKS
BELLINGHAM     SUNNY     76  60  57 S9G16     29.94F
FRIDAY HARBOR  SUNNY     76  56  49 SE6       29.96F
EASTSOUND      SUNNY     70  55  60 N6        29.95S
PORT ANGELES   SUNNY     78  53  41 E10       29.96F
PORT TOWNSEND  FAIR      82  55  39 NE8       29.94F
NAS WHIDBEY    SUNNY     71  56  58 W6        29.98F
ARLINGTON      SUNNY     84  57  39 W14       29.93F
BURLINGTON     SUNNY     79  57  47 NW9       29.95F
$$

WAZ020-022-039-040-504-511-512-032100-
SOUTHWEST INTERIOR

CITY           SKY/WX    TMP DP  RH WIND       PRES   REMARKS
SHELTON        SUNNY     85  57  38 W7        29.92F
OLYMPIA        SUNNY     86  56  35 N7        29.94F
CHEHALIS       FAIR      88  61  40 NE5       29.94F
KELSO          SUNNY     79  59  50 NW7       29.98F
VANCOUVER      SUNNY     86  54  33 NW5       29.91F
SCAPPOOSE, OR  SUNNY     85  60  42 E5        29.91F
PORTLAND, OR   SUNNY     86  55  34 VRB6      29.92F
$$

WAZ021-516-517-032100-
WASHINGTON COAST

CITY           SKY/WX    TMP DP  RH WIND       PRES   REMARKS
FORKS          CLOUDY    71  56  58 SW9       29.96F
HOQUIAM        SUNNY     67  58  72 SW13      29.99F HAZE
ASTORIA, OR    MOSUNNY   68  58  70 SW10      30.00F
$$

WAZ019-023-024-040-518-519-032100-
CASCADE MOUNTAINS AND COLUMBIA GORGE

CITY           SKY/WX    TMP DP  RH WIND       PRES   REMARKS
TROUTDALE, OR  SUNNY     87  55  33 VRB3      29.90F
THE DALLES, OR SUNNY     95  52  23 NW24G31   29.79F HX  92
$$

WAZ026-027-041>044-520-521-032100-
EAST SLOPES

CITY           SKY/WX    TMP DP  RH WIND       PRES   REMARKS
OMAK           SUNNY     99  43  14 S6        29.81F HX  95
WENATCHEE      SUNNY     99  31   9 W8        29.81F HX  93
ELLENSBURG     SUNNY     99  40  13 NW13      29.86F HX  94
YAKIMA         SUNNY    101  45  15 E8        29.82F HX  97
$$

WAZ028-034-035-032100-
COLUMBIA BASIN

CITY           SKY/WX    TMP DP  RH WIND       PRES   REMARKS
EPHRATA        SUNNY    100  48  17 SW15      29.82F HX  96
MOSES LAKE     SUNNY     99  51  19 SW8       29.83F HX  96
PASCO          SUNNY     99  49  18 N5        29.79F HX  96
HERMISTON, OR  SUNNY     95  51  22 CALM      29.81F HX  92
$$

WAZ036>038-032100-
NORTHEAST WASHINGTON

CITY           SKY/WX    TMP DP  RH WIND       PRES   REMARKS
SPOKANE GEIGER MOSUNNY   95  41  15 SW12      29.90F HX  91
SPOKANE FELTS  SUNNY     98  47  17 CALM      29.87F HX  94
FAIRCHILD AFB  SUNNY     95  40  15 SW9       29.90F HX  91
COEURDALENE,ID SUNNY     93  50  22 W3        29.88F HX  90
DEER PARK      SUNNY     94  47  20 VRB5      29.89F HX  90
$$

WAZ029>033-032100-
SOUTHEAST WASHINGTON

CITY           SKY/WX    TMP DP  RH WIND       PRES   REMARKS
PULLMAN        SUNNY     92  46  20 VRB6      29.94F
LEWISTON, ID   SUNNY     97  47  18 CALM      29.84F HX  93
WALLA WALLA    SUNNY     98  44  15 SW8       29.84F HX  94
PENDLETON, OR  SUNNY     98  44  15 VRB7      29.85F HX  94
$$



USA.gov is the U.S. government's official web portal to all federal, state and local government web resources and services.